owner,sensor,date,latitude,longitude,vertical_datum,sea_water_temperature,qcFlag 
COMPS,ioos:station:USF.COMPS:C10:1,2017-05-01T00:05:00Z,27.1690,-82.9260,-1.0,24.65,2 
COMPS,ioos:station:USF.COMPS:C10:1,2017-05-01T00:35:00Z,27.1690,-82.9260,-1.0,24.63,2 
COMPS,ioos:station:USF.COMPS:C10:1,2017-05-01T01:05:00Z,27.1690,-82.9260,-1.0,24.59,2 
COMPS,ioos:station:USF.COMPS:C10:1,2017-05-01T01:35:00Z,27.1690,-82.9260,-1.0,24.57,2 
COMPS,ioos:station:USF.COMPS:C10:1,2017-05-01T02:05:00Z,27.1690,-82.9260,-1.0,24.55,2 
COMPS,ioos:station:USF.COMPS:C10:1,2017-05-01T02:35:00Z,27.1690,-82.9260,-1.0,24.53,2 
COMPS,ioos:station:USF.COMPS:C10:1,2017-05-01T03:05:00Z,27.1690,-82.9260,-1.0,24.52,2 
COMPS,ioos:station:USF.COMPS:C10:1,2017-05-01T03:35:00Z,27.1690,-82.9260,-1.0,24.5,2 
COMPS,ioos:station:USF.COMPS:C10:1,2017-05-01T04:05:00Z,27.1690,-82.9260,-1.0,24.49,2 
COMPS,ioos:station:USF.COMPS:C10:1,2017-05-01T04:35:00Z,27.1690,-82.9260,-1.0,24.48,2 
COMPS,ioos:station:USF.COMPS:C10:1,2017-05-01T05:05:00Z,27.1690,-82.9260,-1.0,24.45,2 
COMPS,ioos:station:USF.COMPS:C10:1,2017-05-01T05:35:00Z,27.1690,-82.9260,-1.0,24.44,2 
COMPS,ioos:station:USF.COMPS:C10:1,2017-05-01T06:05:00Z,27.1690,-82.9260,-1.0,24.42,2 
COMPS,ioos:station:USF.COMPS:C10:1,2017-05-01T06:35:00Z,27.1690,-82.9260,-1.0,24.43,2 
COMPS,ioos:station:USF.COMPS:C10:1,2017-05-01T07:05:00Z,27.1690,-82.9260,-1.0,24.43,2 
COMPS,ioos:station:USF.COMPS:C10:1,2017-05-01T07:35:00Z,27.1690,-82.9260,-1.0,24.43,2 
COMPS,ioos:station:USF.COMPS:C10:1,2017-05-01T08:05:00Z,27.1690,-82.9260,-1.0,24.43,2 
COMPS,ioos:station:USF.COMPS:C10:1,2017-05-01T08:35:00Z,27.1690,-82.9260,-1.0,24.43,2 
COMPS,ioos:station:USF.COMPS:C10:1,2017-05-01T09:05:00Z,27.1690,-82.9260,-1.0,24.42,2 
COMPS,ioos:station:USF.COMPS:C10:1,2017-05-01T09:35:00Z,27.1690,-82.9260,-1.0,24.42,2 
COMPS,ioos:station:USF.COMPS:C10:1,2017-05-01T10:05:00Z,27.1690,-82.9260,-1.0,24.43,2 
COMPS,ioos:station:USF.COMPS:C10:1,2017-05-01T10:35:00Z,27.1690,-82.9260,-1.0,24.43,2 
COMPS,ioos:station:USF.COMPS:C10:1,2017-05-01T11:05:00Z,27.1690,-82.9260,-1.0,24.43,2 
COMPS,ioos:station:USF.COMPS:C10:1,2017-05-01T11:35:00Z,27.1690,-82.9260,-1.0,24.43,2 
COMPS,ioos:station:USF.COMPS:C10:1,2017-05-01T12:05:00Z,27.1690,-82.9260,-1.0,24.43,2 
COMPS,ioos:station:USF.COMPS:C10:1,2017-05-01T12:35:00Z,27.1690,-82.9260,-1.0,24.45,2 
COMPS,ioos:station:USF.COMPS:C10:1,2017-05-01T13:05:00Z,27.1690,-82.9260,-1.0,24.46,2 
COMPS,ioos:station:USF.COMPS:C10:1,2017-05-01T13:35:00Z,27.1690,-82.9260,-1.0,24.48,2 
COMPS,ioos:station:USF.COMPS:C10:1,2017-05-01T14:05:00Z,27.1690,-82.9260,-1.0,24.5,2 
COMPS,ioos:station:USF.COMPS:C10:1,2017-05-01T14:35:00Z,27.1690,-82.9260,-1.0,24.51,2 
COMPS,ioos:station:USF.COMPS:C10:1,2017-05-01T15:05:00Z,27.1690,-82.9260,-1.0,24.6,2 
COMPS,ioos:station:USF.COMPS:C10:1,2017-05-01T15:35:00Z,27.1690,-82.9260,-1.0,24.65,2 
COMPS,ioos:station:USF.COMPS:C10:1,2017-05-01T16:05:00Z,27.1690,-82.9260,-1.0,24.73,2 
COMPS,ioos:station:USF.COMPS:C10:1,2017-05-01T16:35:00Z,27.1690,-82.9260,-1.0,24.82,2 
COMPS,ioos:station:USF.COMPS:C10:1,2017-05-01T17:05:00Z,27.1690,-82.9260,-1.0,24.85,2 
COMPS,ioos:station:USF.COMPS:C10:1,2017-05-01T17:35:00Z,27.1690,-82.9260,-1.0,24.94,2 
COMPS,ioos:station:USF.COMPS:C10:1,2017-05-01T18:05:00Z,27.1690,-82.9260,-1.0,25.02,2 
COMPS,ioos:station:USF.COMPS:C10:1,2017-05-01T18:35:00Z,27.1690,-82.9260,-1.0,25.15,2 
COMPS,ioos:station:USF.COMPS:C10:1,2017-05-01T19:05:00Z,27.1690,-82.9260,-1.0,25.13,2 
COMPS,ioos:station:USF.COMPS:C10:1,2017-05-01T19:35:00Z,27.1690,-82.9260,-1.0,25.23,2 
COMPS,ioos:station:USF.COMPS:C10:1,2017-05-01T20:05:00Z,27.1690,-82.9260,-1.0,25.04,2 
COMPS,ioos:station:USF.COMPS:C10:1,2017-05-01T20:35:00Z,27.1690,-82.9260,-1.0,24.91,2 
COMPS,ioos:station:USF.COMPS:C10:1,2017-05-01T21:05:00Z,27.1690,-82.9260,-1.0,24.84,2 
COMPS,ioos:station:USF.COMPS:C10:1,2017-05-01T21:35:00Z,27.1690,-82.9260,-1.0,24.87,2 
COMPS,ioos:station:USF.COMPS:C10:1,2017-05-01T22:05:00Z,27.1690,-82.9260,-1.0,24.84,2 
COMPS,ioos:station:USF.COMPS:C10:1,2017-05-01T22:35:00Z,27.1690,-82.9260,-1.0,24.82,2 
COMPS,ioos:station:USF.COMPS:C10:1,2017-05-01T23:05:00Z,27.1690,-82.9260,-1.0,24.82,2 
COMPS,ioos:station:USF.COMPS:C10:1,2017-05-01T23:35:00Z,27.1690,-82.9260,-1.0,24.8,2 
COMPS,ioos:station:USF.COMPS:C10:1,2017-05-02T00:05:00Z,27.1690,-82.9260,-1.0,24.8,2 
COMPS,ioos:station:USF.COMPS:C10:1,2017-05-02T00:35:00Z,27.1690,-82.9260,-1.0,24.79,2 
COMPS,ioos:station:USF.COMPS:C10:1,2017-05-02T01:05:00Z,27.1690,-82.9260,-1.0,24.78,2 
COMPS,ioos:station:USF.COMPS:C10:1,2017-05-02T01:35:00Z,27.1690,-82.9260,-1.0,24.78,2 
COMPS,ioos:station:USF.COMPS:C10:1,2017-05-02T02:05:00Z,27.1690,-82.9260,-1.0,24.78,2 
COMPS,ioos:station:USF.COMPS:C10:1,2017-05-02T02:35:00Z,27.1690,-82.9260,-1.0,24.76,2 
COMPS,ioos:station:USF.COMPS:C10:1,2017-05-02T03:05:00Z,27.1690,-82.9260,-1.0,24.75,2 
COMPS,ioos:station:USF.COMPS:C10:1,2017-05-02T03:35:00Z,27.1690,-82.9260,-1.0,24.73,2 
COMPS,ioos:station:USF.COMPS:C10:1,2017-05-02T04:05:00Z,27.1690,-82.9260,-1.0,24.74,2 
COMPS,ioos:station:USF.COMPS:C10:1,2017-05-02T04:35:00Z,27.1690,-82.9260,-1.0,24.74,2 
COMPS,ioos:station:USF.COMPS:C10:1,2017-05-02T05:05:00Z,27.1690,-82.9260,-1.0,24.74,2 
COMPS,ioos:station:USF.COMPS:C10:1,2017-05-02T05:35:00Z,27.1690,-82.9260,-1.0,24.74,2 
COMPS,ioos:station:USF.COMPS:C10:1,2017-05-02T06:05:00Z,27.1690,-82.9260,-1.0,24.74,2 
COMPS,ioos:station:USF.COMPS:C10:1,2017-05-02T06:35:00Z,27.1690,-82.9260,-1.0,24.74,2 
COMPS,ioos:station:USF.COMPS:C10:1,2017-05-02T07:05:00Z,27.1690,-82.9260,-1.0,24.72,2 
COMPS,ioos:station:USF.COMPS:C10:1,2017-05-02T07:35:00Z,27.1690,-82.9260,-1.0,24.72,2 
COMPS,ioos:station:USF.COMPS:C10:1,2017-05-02T08:05:00Z,27.1690,-82.9260,-1.0,24.72,2 
COMPS,ioos:station:USF.COMPS:C10:1,2017-05-02T08:35:00Z,27.1690,-82.9260,-1.0,24.71,2 
COMPS,ioos:station:USF.COMPS:C10:1,2017-05-02T09:05:00Z,27.1690,-82.9260,-1.0,24.71,2 
COMPS,ioos:station:USF.COMPS:C10:1,2017-05-02T09:35:00Z,27.1690,-82.9260,-1.0,24.71,2 
COMPS,ioos:station:USF.COMPS:C10:1,2017-05-02T10:05:00Z,27.1690,-82.9260,-1.0,24.71,2 
COMPS,ioos:station:USF.COMPS:C10:1,2017-05-02T10:35:00Z,27.1690,-82.9260,-1.0,24.72,2 
COMPS,ioos:station:USF.COMPS:C10:1,2017-05-02T11:05:00Z,27.1690,-82.9260,-1.0,24.71,2 
COMPS,ioos:station:USF.COMPS:C10:1,2017-05-02T11:35:00Z,27.1690,-82.9260,-1.0,24.71,2 
COMPS,ioos:station:USF.COMPS:C10:1,2017-05-02T12:05:00Z,27.1690,-82.9260,-1.0,24.72,2 
COMPS,ioos:station:USF.COMPS:C10:1,2017-05-02T12:35:00Z,27.1690,-82.9260,-1.0,24.71,2 
COMPS,ioos:station:USF.COMPS:C10:1,2017-05-02T13:05:00Z,27.1690,-82.9260,-1.0,24.74,2 
COMPS,ioos:station:USF.COMPS:C10:1,2017-05-02T13:35:00Z,27.1690,-82.9260,-1.0,24.76,2 
COMPS,ioos:station:USF.COMPS:C10:1,2017-05-02T14:05:00Z,27.1690,-82.9260,-1.0,24.82,2 
COMPS,ioos:station:USF.COMPS:C10:1,2017-05-02T14:35:00Z,27.1690,-82.9260,-1.0,24.93,2 
COMPS,ioos:station:USF.COMPS:C10:1,2017-05-02T15:05:00Z,27.1690,-82.9260,-1.0,25.09,2 
COMPS,ioos:station:USF.COMPS:C10:1,2017-05-02T15:35:00Z,27.1690,-82.9260,-1.0,25.22,2 
COMPS,ioos:station:USF.COMPS:C10:1,2017-05-02T16:05:00Z,27.1690,-82.9260,-1.0,25.41,2 
COMPS,ioos:station:USF.COMPS:C10:1,2017-05-02T16:35:00Z,27.1690,-82.9260,-1.0,25.64,2 
COMPS,ioos:station:USF.COMPS:C10:1,2017-05-02T17:05:00Z,27.1690,-82.9260,-1.0,25.89,2 
COMPS,ioos:station:USF.COMPS:C10:1,2017-05-02T17:35:00Z,27.1690,-82.9260,-1.0,26.12,2 
COMPS,ioos:station:USF.COMPS:C10:1,2017-05-02T21:05:00Z,27.1690,-82.9260,-1.0,25.68,2 
COMPS,ioos:station:USF.COMPS:C10:1,2017-05-02T21:35:00Z,27.1690,-82.9260,-1.0,25.61,2 
COMPS,ioos:station:USF.COMPS:C10:1,2017-05-02T22:05:00Z,27.1690,-82.9260,-1.0,25.56,2 
COMPS,ioos:station:USF.COMPS:C10:1,2017-05-02T22:35:00Z,27.1690,-82.9260,-1.0,25.54,2 
COMPS,ioos:station:USF.COMPS:C10:1,2017-05-03T00:05:00Z,27.1690,-82.9260,-1.0,25.35,2 
COMPS,ioos:station:USF.COMPS:C10:1,2017-05-03T00:35:00Z,27.1690,-82.9260,-1.0,25.31,2 
COMPS,ioos:station:USF.COMPS:C10:1,2017-05-03T01:05:00Z,27.1690,-82.9260,-1.0,25.29,2 
COMPS,ioos:station:USF.COMPS:C10:1,2017-05-03T03:05:00Z,27.1690,-82.9260,-1.0,25.27,2 
COMPS,ioos:station:USF.COMPS:C10:1,2017-05-03T03:35:00Z,27.1690,-82.9260,-1.0,25.31,2 
COMPS,ioos:station:USF.COMPS:C10:1,2017-05-03T04:05:00Z,27.1690,-82.9260,-1.0,25.27,2 
COMPS,ioos:station:USF.COMPS:C10:1,2017-05-03T04:35:00Z,27.1690,-82.9260,-1.0,25.23,2 
COMPS,ioos:station:USF.COMPS:C10:1,2017-05-03T05:05:00Z,27.1690,-82.9260,-1.0,25.26,2 
COMPS,ioos:station:USF.COMPS:C10:1,2017-05-03T05:35:00Z,27.1690,-82.9260,-1.0,25.27,2 
COMPS,ioos:station:USF.COMPS:C10:1,2017-05-03T06:05:00Z,27.1690,-82.9260,-1.0,25.26,2 
COMPS,ioos:station:USF.COMPS:C10:1,2017-05-03T06:35:00Z,27.1690,-82.9260,-1.0,25.23,2 
COMPS,ioos:station:USF.COMPS:C10:1,2017-05-03T07:05:00Z,27.1690,-82.9260,-1.0,25.2,2 
COMPS,ioos:station:USF.COMPS:C10:1,2017-05-03T07:35:00Z,27.1690,-82.9260,-1.0,25.18,2 
COMPS,ioos:station:USF.COMPS:C10:1,2017-05-03T08:05:00Z,27.1690,-82.9260,-1.0,25.15,2 
COMPS,ioos:station:USF.COMPS:C10:1,2017-05-03T08:35:00Z,27.1690,-82.9260,-1.0,25.14,2 
COMPS,ioos:station:USF.COMPS:C10:1,2017-05-03T09:05:00Z,27.1690,-82.9260,-1.0,25.13,2 
COMPS,ioos:station:USF.COMPS:C10:1,2017-05-03T09:35:00Z,27.1690,-82.9260,-1.0,25.11,2 
COMPS,ioos:station:USF.COMPS:C10:1,2017-05-03T10:05:00Z,27.1690,-82.9260,-1.0,25.08,2 
COMPS,ioos:station:USF.COMPS:C10:1,2017-05-03T10:35:00Z,27.1690,-82.9260,-1.0,25.07,2 
COMPS,ioos:station:USF.COMPS:C10:1,2017-05-03T11:05:00Z,27.1690,-82.9260,-1.0,25.05,2 
COMPS,ioos:station:USF.COMPS:C10:1,2017-05-03T11:35:00Z,27.1690,-82.9260,-1.0,25.04,2 
COMPS,ioos:station:USF.COMPS:C10:1,2017-05-03T12:05:00Z,27.1690,-82.9260,-1.0,25.02,2 
COMPS,ioos:station:USF.COMPS:C10:1,2017-05-03T12:35:00Z,27.1690,-82.9260,-1.0,25.01,2 
COMPS,ioos:station:USF.COMPS:C10:1,2017-05-03T13:05:00Z,27.1690,-82.9260,-1.0,25.02,2 
COMPS,ioos:station:USF.COMPS:C10:1,2017-05-03T13:35:00Z,27.1690,-82.9260,-1.0,25.02,2 
COMPS,ioos:station:USF.COMPS:C10:1,2017-05-03T14:05:00Z,27.1690,-82.9260,-1.0,25.03,2 
COMPS,ioos:station:USF.COMPS:C10:1,2017-05-03T14:35:00Z,27.1690,-82.9260,-1.0,25.1,2 
COMPS,ioos:station:USF.COMPS:C10:1,2017-05-03T15:05:00Z,27.1690,-82.9260,-1.0,25.1,2 
COMPS,ioos:station:USF.COMPS:C10:1,2017-05-03T15:35:00Z,27.1690,-82.9260,-1.0,25.15,2 
COMPS,ioos:station:USF.COMPS:C10:1,2017-05-03T16:05:00Z,27.1690,-82.9260,-1.0,25.26,2 
COMPS,ioos:station:USF.COMPS:C10:1,2017-05-03T16:35:00Z,27.1690,-82.9260,-1.0,25.34,2 
COMPS,ioos:station:USF.COMPS:C10:1,2017-05-03T17:05:00Z,27.1690,-82.9260,-1.0,25.44,2 
COMPS,ioos:station:USF.COMPS:C10:1,2017-05-03T17:35:00Z,27.1690,-82.9260,-1.0,25.63,2 
COMPS,ioos:station:USF.COMPS:C10:1,2017-05-03T18:05:00Z,27.1690,-82.9260,-1.0,25.65,2 
COMPS,ioos:station:USF.COMPS:C10:1,2017-05-03T18:35:00Z,27.1690,-82.9260,-1.0,25.88,2 
COMPS,ioos:station:USF.COMPS:C10:1,2017-05-03T19:05:00Z,27.1690,-82.9260,-1.0,25.93,2 
COMPS,ioos:station:USF.COMPS:C10:1,2017-05-03T19:35:00Z,27.1690,-82.9260,-1.0,25.93,2 
COMPS,ioos:station:USF.COMPS:C10:1,2017-05-03T20:05:00Z,27.1690,-82.9260,-1.0,25.89,2 
COMPS,ioos:station:USF.COMPS:C10:1,2017-05-03T20:35:00Z,27.1690,-82.9260,-1.0,25.89,2 
COMPS,ioos:station:USF.COMPS:C10:1,2017-05-03T21:05:00Z,27.1690,-82.9260,-1.0,25.84,2 
COMPS,ioos:station:USF.COMPS:C10:1,2017-05-03T21:35:00Z,27.1690,-82.9260,-1.0,25.85,2 
COMPS,ioos:station:USF.COMPS:C10:1,2017-05-03T22:05:00Z,27.1690,-82.9260,-1.0,25.83,2 
COMPS,ioos:station:USF.COMPS:C10:1,2017-05-03T22:35:00Z,27.1690,-82.9260,-1.0,25.72,2 
COMPS,ioos:station:USF.COMPS:C10:1,2017-05-03T23:05:00Z,27.1690,-82.9260,-1.0,25.72,2 
COMPS,ioos:station:USF.COMPS:C10:1,2017-05-03T23:35:00Z,27.1690,-82.9260,-1.0,25.59,2 
COMPS,ioos:station:USF.COMPS:C10:1,2017-05-04T00:05:00Z,27.1690,-82.9260,-1.0,25.6,2 
COMPS,ioos:station:USF.COMPS:C10:1,2017-05-04T00:35:00Z,27.1690,-82.9260,-1.0,25.58,2 
COMPS,ioos:station:USF.COMPS:C10:1,2017-05-04T01:05:00Z,27.1690,-82.9260,-1.0,25.55,2 
COMPS,ioos:station:USF.COMPS:C10:1,2017-05-04T01:35:00Z,27.1690,-82.9260,-1.0,25.54,2 
COMPS,ioos:station:USF.COMPS:C10:1,2017-05-04T02:05:00Z,27.1690,-82.9260,-1.0,25.5,2 
COMPS,ioos:station:USF.COMPS:C10:1,2017-05-04T02:35:00Z,27.1690,-82.9260,-1.0,25.49,2 
COMPS,ioos:station:USF.COMPS:C10:1,2017-05-04T03:05:00Z,27.1690,-82.9260,-1.0,25.47,2 
COMPS,ioos:station:USF.COMPS:C10:1,2017-05-04T03:35:00Z,27.1690,-82.9260,-1.0,25.47,2 
COMPS,ioos:station:USF.COMPS:C10:1,2017-05-04T04:05:00Z,27.1690,-82.9260,-1.0,25.46,2 
COMPS,ioos:station:USF.COMPS:C10:1,2017-05-04T04:35:00Z,27.1690,-82.9260,-1.0,25.44,2 
COMPS,ioos:station:USF.COMPS:C10:1,2017-05-04T05:05:00Z,27.1690,-82.9260,-1.0,25.42,2 
COMPS,ioos:station:USF.COMPS:C10:1,2017-05-04T05:35:00Z,27.1690,-82.9260,-1.0,25.42,2 
COMPS,ioos:station:USF.COMPS:C10:1,2017-05-04T06:05:00Z,27.1690,-82.9260,-1.0,25.4,2 
COMPS,ioos:station:USF.COMPS:C10:1,2017-05-04T06:35:00Z,27.1690,-82.9260,-1.0,25.37,2 
COMPS,ioos:station:USF.COMPS:C10:1,2017-05-04T07:05:00Z,27.1690,-82.9260,-1.0,25.35,2 
COMPS,ioos:station:USF.COMPS:C10:1,2017-05-04T07:35:00Z,27.1690,-82.9260,-1.0,25.32,2 
COMPS,ioos:station:USF.COMPS:C10:1,2017-05-04T08:05:00Z,27.1690,-82.9260,-1.0,25.29,2 
COMPS,ioos:station:USF.COMPS:C10:1,2017-05-04T08:35:00Z,27.1690,-82.9260,-1.0,25.28,2 
COMPS,ioos:station:USF.COMPS:C10:1,2017-05-04T09:05:00Z,27.1690,-82.9260,-1.0,25.24,2 
COMPS,ioos:station:USF.COMPS:C10:1,2017-05-04T09:35:00Z,27.1690,-82.9260,-1.0,25.23,2 
COMPS,ioos:station:USF.COMPS:C10:1,2017-05-04T10:05:00Z,27.1690,-82.9260,-1.0,25.22,2 
COMPS,ioos:station:USF.COMPS:C10:1,2017-05-04T10:35:00Z,27.1690,-82.9260,-1.0,25.2,2 
COMPS,ioos:station:USF.COMPS:C10:1,2017-05-04T11:05:00Z,27.1690,-82.9260,-1.0,25.2,2 
COMPS,ioos:station:USF.COMPS:C10:1,2017-05-04T11:35:00Z,27.1690,-82.9260,-1.0,25.16,2 
COMPS,ioos:station:USF.COMPS:C10:1,2017-05-04T12:05:00Z,27.1690,-82.9260,-1.0,25.14,2 
COMPS,ioos:station:USF.COMPS:C10:1,2017-05-04T12:35:00Z,27.1690,-82.9260,-1.0,25.1,2 
COMPS,ioos:station:USF.COMPS:C10:1,2017-05-04T13:05:00Z,27.1690,-82.9260,-1.0,25.11,2 
COMPS,ioos:station:USF.COMPS:C10:1,2017-05-04T13:35:00Z,27.1690,-82.9260,-1.0,25.11,2 
COMPS,ioos:station:USF.COMPS:C10:1,2017-05-04T14:05:00Z,27.1690,-82.9260,-1.0,25.11,2 
COMPS,ioos:station:USF.COMPS:C10:1,2017-05-04T14:35:00Z,27.1690,-82.9260,-1.0,25.14,2 
COMPS,ioos:station:USF.COMPS:C10:1,2017-05-04T15:05:00Z,27.1690,-82.9260,-1.0,25.15,2 
COMPS,ioos:station:USF.COMPS:C10:1,2017-05-04T15:35:00Z,27.1690,-82.9260,-1.0,25.17,2 
COMPS,ioos:station:USF.COMPS:C10:1,2017-05-04T16:05:00Z,27.1690,-82.9260,-1.0,25.16,2 
COMPS,ioos:station:USF.COMPS:C10:1,2017-05-04T16:35:00Z,27.1690,-82.9260,-1.0,25.21,2 
COMPS,ioos:station:USF.COMPS:C10:1,2017-05-04T17:05:00Z,27.1690,-82.9260,-1.0,25.22,2 
COMPS,ioos:station:USF.COMPS:C10:1,2017-05-04T17:35:00Z,27.1690,-82.9260,-1.0,25.29,2 
COMPS,ioos:station:USF.COMPS:C10:1,2017-05-04T18:05:00Z,27.1690,-82.9260,-1.0,25.32,2 
COMPS,ioos:station:USF.COMPS:C10:1,2017-05-04T18:35:00Z,27.1690,-82.9260,-1.0,25.36,2 
COMPS,ioos:station:USF.COMPS:C10:1,2017-05-04T19:05:00Z,27.1690,-82.9260,-1.0,25.37,2 
COMPS,ioos:station:USF.COMPS:C10:1,2017-05-04T19:35:00Z,27.1690,-82.9260,-1.0,25.37,2 
COMPS,ioos:station:USF.COMPS:C10:1,2017-05-04T20:05:00Z,27.1690,-82.9260,-1.0,25.32,2 
COMPS,ioos:station:USF.COMPS:C10:1,2017-05-04T20:35:00Z,27.1690,-82.9260,-1.0,25.29,2 
COMPS,ioos:station:USF.COMPS:C10:1,2017-05-04T21:05:00Z,27.1690,-82.9260,-1.0,25.26,2 
COMPS,ioos:station:USF.COMPS:C10:1,2017-05-04T21:35:00Z,27.1690,-82.9260,-1.0,25.25,2 
COMPS,ioos:station:USF.COMPS:C10:1,2017-05-04T22:05:00Z,27.1690,-82.9260,-1.0,25.19,2 
COMPS,ioos:station:USF.COMPS:C10:1,2017-05-04T22:35:00Z,27.1690,-82.9260,-1.0,25.18,2 
COMPS,ioos:station:USF.COMPS:C10:1,2017-05-04T23:05:00Z,27.1690,-82.9260,-1.0,25.17,2 
COMPS,ioos:station:USF.COMPS:C10:1,2017-05-04T23:35:00Z,27.1690,-82.9260,-1.0,25.17,2 
COMPS,ioos:station:USF.COMPS:C10:1,2017-05-05T00:05:00Z,27.1690,-82.9260,-1.0,25.16,2 
COMPS,ioos:station:USF.COMPS:C10:1,2017-05-05T00:35:00Z,27.1690,-82.9260,-1.0,25.16,2 
COMPS,ioos:station:USF.COMPS:C10:1,2017-05-05T01:05:00Z,27.1690,-82.9260,-1.0,25.14,2 
COMPS,ioos:station:USF.COMPS:C10:1,2017-05-05T01:35:00Z,27.1690,-82.9260,-1.0,25.16,2 
COMPS,ioos:station:USF.COMPS:C10:1,2017-05-05T02:05:00Z,27.1690,-82.9260,-1.0,25.16,2 
COMPS,ioos:station:USF.COMPS:C10:1,2017-05-05T02:35:00Z,27.1690,-82.9260,-1.0,25.16,2 
COMPS,ioos:station:USF.COMPS:C10:1,2017-05-05T03:05:00Z,27.1690,-82.9260,-1.0,25.16,2 
COMPS,ioos:station:USF.COMPS:C10:1,2017-05-05T03:35:00Z,27.1690,-82.9260,-1.0,25.17,2 
COMPS,ioos:station:USF.COMPS:C10:1,2017-05-05T04:05:00Z,27.1690,-82.9260,-1.0,25.16,2 
COMPS,ioos:station:USF.COMPS:C10:1,2017-05-05T04:35:00Z,27.1690,-82.9260,-1.0,25.16,2 
COMPS,ioos:station:USF.COMPS:C10:1,2017-05-05T05:05:00Z,27.1690,-82.9260,-1.0,25.16,2 
COMPS,ioos:station:USF.COMPS:C10:1,2017-05-05T05:35:00Z,27.1690,-82.9260,-1.0,25.15,2 
COMPS,ioos:station:USF.COMPS:C10:1,2017-05-05T06:05:00Z,27.1690,-82.9260,-1.0,25.15,2 
COMPS,ioos:station:USF.COMPS:C10:1,2017-05-05T06:35:00Z,27.1690,-82.9260,-1.0,25.15,2 
COMPS,ioos:station:USF.COMPS:C10:1,2017-05-05T07:05:00Z,27.1690,-82.9260,-1.0,25.15,2 
COMPS,ioos:station:USF.COMPS:C10:1,2017-05-05T07:35:00Z,27.1690,-82.9260,-1.0,25.14,2 
COMPS,ioos:station:USF.COMPS:C10:1,2017-05-05T08:05:00Z,27.1690,-82.9260,-1.0,25.14,2 
COMPS,ioos:station:USF.COMPS:C10:1,2017-05-05T08:35:00Z,27.1690,-82.9260,-1.0,25.13,2 
COMPS,ioos:station:USF.COMPS:C10:1,2017-05-05T09:05:00Z,27.1690,-82.9260,-1.0,25.12,2 
COMPS,ioos:station:USF.COMPS:C10:1,2017-05-05T09:35:00Z,27.1690,-82.9260,-1.0,25.11,2 
COMPS,ioos:station:USF.COMPS:C10:1,2017-05-05T10:05:00Z,27.1690,-82.9260,-1.0,25.11,2 
COMPS,ioos:station:USF.COMPS:C10:1,2017-05-05T10:35:00Z,27.1690,-82.9260,-1.0,25.11,2 
COMPS,ioos:station:USF.COMPS:C10:1,2017-05-05T11:05:00Z,27.1690,-82.9260,-1.0,25.12,2 
COMPS,ioos:station:USF.COMPS:C10:1,2017-05-05T11:35:00Z,27.1690,-82.9260,-1.0,25.12,2 
COMPS,ioos:station:USF.COMPS:C10:1,2017-05-05T12:05:00Z,27.1690,-82.9260,-1.0,25.1,2 
COMPS,ioos:station:USF.COMPS:C10:1,2017-05-05T12:35:00Z,27.1690,-82.9260,-1.0,25.1,2 
COMPS,ioos:station:USF.COMPS:C10:1,2017-05-05T13:05:00Z,27.1690,-82.9260,-1.0,25.09,2 
COMPS,ioos:station:USF.COMPS:C10:1,2017-05-05T13:35:00Z,27.1690,-82.9260,-1.0,25.08,2 
COMPS,ioos:station:USF.COMPS:C10:1,2017-05-05T14:05:00Z,27.1690,-82.9260,-1.0,25.08,2 
COMPS,ioos:station:USF.COMPS:C10:1,2017-05-05T14:35:00Z,27.1690,-82.9260,-1.0,25.08,2 
COMPS,ioos:station:USF.COMPS:C10:1,2017-05-05T16:05:00Z,27.1690,-82.9260,-1.0,25.08,2 
COMPS,ioos:station:USF.COMPS:C10:1,2017-05-05T16:35:00Z,27.1690,-82.9260,-1.0,25.09,2 
COMPS,ioos:station:USF.COMPS:C10:1,2017-05-05T17:05:00Z,27.1690,-82.9260,-1.0,25.1,2 
COMPS,ioos:station:USF.COMPS:C10:1,2017-05-05T17:35:00Z,27.1690,-82.9260,-1.0,25.11,2 
COMPS,ioos:station:USF.COMPS:C10:1,2017-05-05T18:05:00Z,27.1690,-82.9260,-1.0,25.13,2 
COMPS,ioos:station:USF.COMPS:C10:1,2017-05-05T18:35:00Z,27.1690,-82.9260,-1.0,25.15,2 
COMPS,ioos:station:USF.COMPS:C10:1,2017-05-05T19:05:00Z,27.1690,-82.9260,-1.0,25.17,2 
COMPS,ioos:station:USF.COMPS:C10:1,2017-05-05T19:35:00Z,27.1690,-82.9260,-1.0,25.17,2 
COMPS,ioos:station:USF.COMPS:C10:1,2017-05-05T20:05:00Z,27.1690,-82.9260,-1.0,25.18,2 
COMPS,ioos:station:USF.COMPS:C10:1,2017-05-05T20:35:00Z,27.1690,-82.9260,-1.0,25.18,2 
COMPS,ioos:station:USF.COMPS:C10:1,2017-05-05T21:05:00Z,27.1690,-82.9260,-1.0,25.19,2 
COMPS,ioos:station:USF.COMPS:C10:1,2017-05-05T21:35:00Z,27.1690,-82.9260,-1.0,25.19,2 
COMPS,ioos:station:USF.COMPS:C10:1,2017-05-05T22:05:00Z,27.1690,-82.9260,-1.0,25.18,2 
COMPS,ioos:station:USF.COMPS:C10:1,2017-05-05T22:35:00Z,27.1690,-82.9260,-1.0,25.17,2 
COMPS,ioos:station:USF.COMPS:C10:1,2017-05-05T23:05:00Z,27.1690,-82.9260,-1.0,25.17,2 
COMPS,ioos:station:USF.COMPS:C10:1,2017-05-05T23:35:00Z,27.1690,-82.9260,-1.0,25.14,2 
COMPS,ioos:station:USF.COMPS:C10:1,2017-05-06T00:05:00Z,27.1690,-82.9260,-1.0,25.12,2 
COMPS,ioos:station:USF.COMPS:C10:1,2017-05-06T00:35:00Z,27.1690,-82.9260,-1.0,25.09,2 
COMPS,ioos:station:USF.COMPS:C10:1,2017-05-06T01:05:00Z,27.1690,-82.9260,-1.0,25.11,2 
COMPS,ioos:station:USF.COMPS:C10:1,2017-05-06T01:35:00Z,27.1690,-82.9260,-1.0,25.09,2 
COMPS,ioos:station:USF.COMPS:C10:1,2017-05-06T02:05:00Z,27.1690,-82.9260,-1.0,25.08,2 
COMPS,ioos:station:USF.COMPS:C10:1,2017-05-06T02:35:00Z,27.1690,-82.9260,-1.0,25.09,2 
COMPS,ioos:station:USF.COMPS:C10:1,2017-05-06T03:05:00Z,27.1690,-82.9260,-1.0,25.06,2 
COMPS,ioos:station:USF.COMPS:C10:1,2017-05-06T03:35:00Z,27.1690,-82.9260,-1.0,25.05,2 
COMPS,ioos:station:USF.COMPS:C10:1,2017-05-06T04:05:00Z,27.1690,-82.9260,-1.0,25.05,2 
COMPS,ioos:station:USF.COMPS:C10:1,2017-05-06T04:35:00Z,27.1690,-82.9260,-1.0,25.02,2 
COMPS,ioos:station:USF.COMPS:C10:1,2017-05-06T05:05:00Z,27.1690,-82.9260,-1.0,25.01,2 
COMPS,ioos:station:USF.COMPS:C10:1,2017-05-06T05:35:00Z,27.1690,-82.9260,-1.0,25.02,2 
COMPS,ioos:station:USF.COMPS:C10:1,2017-05-06T06:05:00Z,27.1690,-82.9260,-1.0,25.0,2 
COMPS,ioos:station:USF.COMPS:C10:1,2017-05-06T06:35:00Z,27.1690,-82.9260,-1.0,25.0,2 
COMPS,ioos:station:USF.COMPS:C10:1,2017-05-06T07:05:00Z,27.1690,-82.9260,-1.0,24.94,2 
COMPS,ioos:station:USF.COMPS:C10:1,2017-05-06T07:35:00Z,27.1690,-82.9260,-1.0,24.93,2 
COMPS,ioos:station:USF.COMPS:C10:1,2017-05-06T08:05:00Z,27.1690,-82.9260,-1.0,24.94,2 
COMPS,ioos:station:USF.COMPS:C10:1,2017-05-06T08:35:00Z,27.1690,-82.9260,-1.0,24.91,2 
COMPS,ioos:station:USF.COMPS:C10:1,2017-05-06T11:05:00Z,27.1690,-82.9260,-1.0,24.84,2 
COMPS,ioos:station:USF.COMPS:C10:1,2017-05-06T11:35:00Z,27.1690,-82.9260,-1.0,24.81,2 
COMPS,ioos:station:USF.COMPS:C10:1,2017-05-06T12:05:00Z,27.1690,-82.9260,-1.0,24.82,2 
COMPS,ioos:station:USF.COMPS:C10:1,2017-05-06T12:35:00Z,27.1690,-82.9260,-1.0,24.82,2 
COMPS,ioos:station:USF.COMPS:C10:1,2017-05-06T13:05:00Z,27.1690,-82.9260,-1.0,24.81,2 
COMPS,ioos:station:USF.COMPS:C10:1,2017-05-06T13:35:00Z,27.1690,-82.9260,-1.0,24.83,2 
COMPS,ioos:station:USF.COMPS:C10:1,2017-05-06T14:05:00Z,27.1690,-82.9260,-1.0,24.83,2 
COMPS,ioos:station:USF.COMPS:C10:1,2017-05-06T14:35:00Z,27.1690,-82.9260,-1.0,24.83,2 
COMPS,ioos:station:USF.COMPS:C10:1,2017-05-06T15:05:00Z,27.1690,-82.9260,-1.0,24.84,2 
COMPS,ioos:station:USF.COMPS:C10:1,2017-05-06T15:35:00Z,27.1690,-82.9260,-1.0,24.84,2 
COMPS,ioos:station:USF.COMPS:C10:1,2017-05-06T16:05:00Z,27.1690,-82.9260,-1.0,24.87,2 
COMPS,ioos:station:USF.COMPS:C10:1,2017-05-06T16:35:00Z,27.1690,-82.9260,-1.0,24.89,2 
COMPS,ioos:station:USF.COMPS:C10:1,2017-05-06T17:05:00Z,27.1690,-82.9260,-1.0,24.93,2 
COMPS,ioos:station:USF.COMPS:C10:1,2017-05-06T17:35:00Z,27.1690,-82.9260,-1.0,24.99,2 
COMPS,ioos:station:USF.COMPS:C10:1,2017-05-06T18:05:00Z,27.1690,-82.9260,-1.0,25.01,2 
COMPS,ioos:station:USF.COMPS:C10:1,2017-05-06T18:35:00Z,27.1690,-82.9260,-1.0,25.03,2 
COMPS,ioos:station:USF.COMPS:C10:1,2017-05-06T19:05:00Z,27.1690,-82.9260,-1.0,25.06,2 
COMPS,ioos:station:USF.COMPS:C10:1,2017-05-06T19:35:00Z,27.1690,-82.9260,-1.0,25.06,2 
COMPS,ioos:station:USF.COMPS:C10:1,2017-05-06T20:05:00Z,27.1690,-82.9260,-1.0,25.05,2 
COMPS,ioos:station:USF.COMPS:C10:1,2017-05-06T20:35:00Z,27.1690,-82.9260,-1.0,25.03,2 
COMPS,ioos:station:USF.COMPS:C10:1,2017-05-06T21:05:00Z,27.1690,-82.9260,-1.0,25.03,2 
COMPS,ioos:station:USF.COMPS:C10:1,2017-05-06T21:35:00Z,27.1690,-82.9260,-1.0,25.0,2 
COMPS,ioos:station:USF.COMPS:C10:1,2017-05-06T22:05:00Z,27.1690,-82.9260,-1.0,25.0,2 
COMPS,ioos:station:USF.COMPS:C10:1,2017-05-06T22:35:00Z,27.1690,-82.9260,-1.0,24.98,2 
COMPS,ioos:station:USF.COMPS:C10:1,2017-05-06T23:05:00Z,27.1690,-82.9260,-1.0,24.96,2 
COMPS,ioos:station:USF.COMPS:C10:1,2017-05-06T23:35:00Z,27.1690,-82.9260,-1.0,24.95,2 
COMPS,ioos:station:USF.COMPS:C10:1,2017-05-07T00:05:00Z,27.1690,-82.9260,-1.0,24.93,2 
COMPS,ioos:station:USF.COMPS:C10:1,2017-05-07T00:35:00Z,27.1690,-82.9260,-1.0,24.91,2 
COMPS,ioos:station:USF.COMPS:C10:1,2017-05-07T01:05:00Z,27.1690,-82.9260,-1.0,24.85,2 
COMPS,ioos:station:USF.COMPS:C10:1,2017-05-07T01:35:00Z,27.1690,-82.9260,-1.0,24.86,2 